Wind_Speed
46 44 43 41 38 36 35 34 34 34 33 34 33 33 32 31 30 30 30 28 28 29 30 31 33 35 37 39 41 42 44 45 47 48 50 51 53 55 56 57 59 61 63 65 67 69 71 74 76 78 79 81 82 83 85 86 87 88 88 87 86 85 83 81 79 78 78 78 78 79 79 80 81 82 83 84 85 86 87 87 88 88 89 89 90 89 89 90
46 45 44 42 39 37 35 35 34 34 34 34 33 32 31 30 29 28 27 27 28 29 30 31 33 36 38 40 41 43 44 46 47 49 50 52 54 55 57 59 61 63 65 67 70 72 74 76 78 79 81 82 84 85 86 87 87 85 83 81 79 78 78 78 78 79 79 80 81 82 82 83 83 84 85 86 87 88 89 90 91 92 93 93 93 93 93 93
46 45 44 42 40 38 36 35 35 35 35 34 33 31 29 28 27 27 27 27 29 30 31 33 34 36 38 40 41 43 44 46 48 50 52 53 55 57 59 61 63 65 67 70 72 74 76 78 79 80 82 83 84 85 84 82 80 78 77 77 77 78 79 80 81 81 81 82 82 83 83 83 83 84 85 86 87 88 89 90 91 92 94 95 95 95 96 96
45 45 43 42 40 39 37 36 35 35 34 33 32 30 29 28 27 27 28 29 30 31 32 34 35 37 38 40 41 43 45 47 49 51 53 55 57 59 61 63 65 67 70 72 74 76 77 79 80 82 83 83 82 80 78 77 76 76 77 78 79 79 79 80 80 80 81 81 81 82 82 82 82 83 84 85 85 86 87 88 89 90 91 93 94 94 95 96
45 44 43 42 41 40 40 38 37 36 34 33 31 30 29 29 29 29 30 31 31 32 33 35 36 37 39 41 43 45 46 48 51 52 55 57 59 61 63 65 67 70 72 74 75 77 78 80 81 81 80 78 77 76 76 76 77 77 78 78 77 77 77 77 77 78 78 79 79 80 80 81 81 83 84 85 85 85 86 87 88 89 90 91 92 92 93 93
44 44 43 43 43 42 41 40 38 36 34 33 32 31 30 30 31 31 31 32 33 33 34 36 37 39 40 42 44 47 48 50 52 54 57 59 61 63 65 67 69 71 73 75 76 78 79 79 78 76 75 74 75 75 75 75 75 74 74 74 74 74 74 75 75 76 77 78 78 79 80 81 82 84 86 87 86 86 87 87 88 89 91 91 92 92 93 93
44 44 44 44 44 43 42 40 39 37 35 34 33 32 32 32 32 32 32 32 33 34 36 37 39 40 42 44 46 48 50 52 54 56 58 60 62 64 66 68 70 72 74 75 76 76 75 74 73 72 72 73 73 72 72 71 71 71 71 72 72 73 73 73 74 75 76 77 78 79 80 81 83 85 88 89 87 87 88 89 89 91 92 93 93 94 94 95
45 44 44 44 44 43 42 40 39 37 35 34 34 33 33 32 32 32 32 32 33 35 37 38 40 42 43 45 47 49 51 53 55 57 59 61 63 65 67 69 71 73 74 74 73 72 71 70 70 70 70 69 69 68 68 68 68 69 69 70 71 72 72 73 74 75 75 76 77 78 79 81 83 87 90 90 88 88 89 89 90 92 93 94 95 96 96 97
46 46 46 45 44 42 40 39 38 37 36 35 34 33 33 32 32 31 31 32 34 36 38 39 41 43 44 46 48 50 52 54 56 58 60 62 64 66 68 70 71 72 71 70 69 69 68 68 67 66 65 65 65 66 66 67 67 67 68 69 70 72 72 73 75 76 76 77 78 78 80 81 84 88 91 91 89 89 90 89 91 92 94 95 96 97 98 98
47 47 46 45 44 41 40 39 38 36 35 34 33 33 32 32 31 31 32 33 35 37 38 40 42 43 45 47 49 51 53 55 57 59 61 63 65 67 68 69 69 67 66 66 66 65 64 63 63 63 63 63 63 64 65 66 66 68 69 70 71 72 73 74 75 76 77 78 79 79 80 82 85 89 92 91 91 91 91 91 92 94 95 96 97 97 98 99
48 47 46 45 43 41 40 38 37 35 34 33 32 32 31 30 31 31 33 35 36 38 39 41 43 45 46 48 50 52 54 55 57 59 61 64 65 66 65 64 64 63 63 62 61 61 61 61 61 61 61 62 62 64 65 66 67 68 69 70 71 72 74 74 75 76 77 78 79 79 79 81 85 89 91 91 91 92 92 93 94 95 96 97 98 99 100 100
47 47 46 44 42 41 39 38 36 34 33 32 31 30 30 30 31 33 34 36 37 39 41 43 44 46 47 49 50 52 54 56 58 61 63 63 63 62 61 60 60 59 58 58 57 58 58 59 59 60 61 62 62 63 64 65 66 66 67 68 69 70 71 72 73 74 76 77 78 78 78 80 85 89 90 90 90 91 92 93 95 96 97 98 100 101 102 102
45 45 44 43 41 40 38 36 34 33 32 31 30 30 30 31 32 34 35 37 38 40 42 43 45 46 48 49 51 53 55 57 59 61 61 60 59 58 57 56 55 54 54 54 54 55 55 57 58 58 59 59 60 60 61 62 63 64 65 66 67 68 70 72 72 73 75 75 76 78 77 78 84 87 88 89 90 91 92 93 94 96 97 98 100 101 103 103
44 43 42 41 40 39 37 35 33 32 31 30 30 30 31 32 33 34 36 38 39 41 42 43 45 46 48 50 52 54 56 57 57 57 56 55 54 53 51 50 49 49 50 50 51 53 53 54 54 55 56 56 57 58 58 60 61 62 63 65 66 67 70 72 72 71 73 73 75 78 77 77 81 84 85 87 89 91 92 93 94 95 97 98 99 101 102 103
41 41 40 40 39 38 36 34 32 31 30 29 30 30 31 32 34 35 37 38 40 41 42 43 45 47 48 50 53 55 55 55 53 52 51 50 48 47 46 46 45 46 47 48 49 50 50 51 51 52 53 54 54 55 56 58 59 61 62 64 66 66 68 72 73 73 73 73 75 78 78 77 79 82 84 86 88 90 92 93 95 95 97 98 99 100 102 103
39 38 38 38 38 36 34 32 30 29 29 29 30 31 31 33 34 35 37 38 39 40 42 44 46 47 49 51 52 52 51 50 48 47 45 44 43 43 42 42 43 44 45 46 46 47 48 49 50 50 51 52 53 55 56 57 59 61 62 63 65 66 67 70 74 75 74 74 76 79 79 77 78 81 84 85 87 89 91 93 94 95 96 97 99 100 101 103
37 36 36 36 35 34 32 31 29 29 29 29 29 30 31 32 34 35 36 37 39 40 42 44 46 48 49 50 49 47 46 44 43 41 41 40 39 39 39 41 42 43 43 44 44 44 45 47 48 49 51 53 55 57 58 59 60 62 63 65 66 66 67 68 71 73 73 74 76 79 79 76 77 80 82 83 84 86 88 90 91 93 94 95 96 98 99 101
35 34 34 33 31 30 29 28 28 27 27 27 28 29 30 32 33 34 36 37 39 40 42 44 46 47 47 46 44 42 41 39 37 37 37 37 36 37 39 40 41 42 43 43 43 43 45 47 50 52 54 57 59 60 61 61 61 62 63 64 65 66 67 68 69 70 69 71 75 78 77 75 77 79 81 82 84 84 85 87 88 90 91 92 94 95 97 98
32 31 30 29 27 27 26 26 26 25 26 26 27 28 30 31 33 34 35 37 39 40 42 44 44 44 42 41 39 37 35 33 32 33 33 34 36 38 39 40 40 41 42 42 44 46 49 52 54 56 58 60 61 62 63 63 63 63 63 64 64 64 65 68 70 69 67 67 72 75 73 72 75 78 80 83 84 85 86 86 87 88 89 90 91 93 94 95
30 28 27 26 25 25 24 24 24 24 25 25 27 28 29 30 32 33 35 37 38 40 41 40 39 38 36 34 32 31 30 29 30 32 33 35 36 37 38 38 38 40 42 45 49 51 53 55 56 58 60 62 64 65 65 66 66 66 65 65 66 64 64 67 69 69 68 67 69 73 72 72 74 76 79 82 85 87 87 87 87 87 88 88 89 90 91 93
27 26 25 24 24 23 23 22 23 23 24 25 26 27 28 30 31 33 35 36 38 38 37 36 34 31 28 26 25 25 26 28 30 32 34 35 35 35 36 37 39 43 47 50 53 54 56 58 59 61 63 64 66 68 68 69 69 69 69 68 68 67 66 67 70 70 70 69 68 70 71 72 74 75 78 80 82 84 85 86 86 86 86 86 86 87 88 89
25 24 23 23 22 21 21 21 21 22 23 23 25 26 28 30 31 33 34 35 35 34 32 30 27 25 23 23 23 25 26 28 30 31 33 33 34 36 39 42 45 49 52 54 55 57 59 61 62 63 65 67 69 70 71 73 74 73 72 71 71 70 67 66 68 70 71 71 68 68 70 70 72 74 77 78 78 80 81 82 83 83 84 84 85 84 84 84
24 23 22 21 20 20 20 20 20 21 22 23 25 26 28 29 31 32 32 31 30 27 24 22 21 21 21 23 24 26 28 29 30 32 34 36 38 41 44 48 50 52 54 56 58 59 61 64 65 67 69 71 72 73 74 76 78 78 76 75 74 73 70 67 66 67 69 71 69 67 67 68 69 72 75 75 75 76 77 79 80 82 82 82 82 81 81 81
23 22 21 20 19 19 19 19 19 20 22 23 24 25 27 28 29 28 27 25 23 19 18 17 18 20 21 23 25 27 28 30 33 36 38 41 44 47 49 51 53 55 56 58 61 63 65 68 70 71 73 75 76 76 76 77 79 81 80 79 76 74 73 72 70 67 67 70 71 69 67 66 67 71 72 73 73 73 74 77 78 79 79 79 79 79 79 80
22 21 20 19 18 18 18 18 19 20 21 22 23 25 26 26 25 24 22 19 16 14 14 16 17 20 22 24 26 27 29 33 36 39 42 44 48 50 52 53 56 58 60 61 64 67 69 71 73 75 76 78 79 79 79 80 80 81 81 80 79 76 75 75 75 72 69 70 72 72 68 65 66 69 71 71 72 73 74 75 76 77 77 78 78 78 79 79
21 20 19 18 17 17 16 16 17 19 20 22 22 23 22 21 20 17 15 13 12 12 13 15 17 19 21 23 26 30 33 36 40 42 45 49 51 53 55 57 60 62 63 65 68 70 71 73 75 77 78 80 81 82 82 82 82 83 83 81 80 79 77 77 77 75 72 71 73 73 71 67 66 69 71 71 71 72 74 75 75 76 77 77 78 78 78 78
20 19 18 17 16 15 14 15 17 18 19 19 19 19 18 16 13 10 10 11 11 12 14 16 18 20 21 24 29 33 37 41 44 46 49 51 52 55 58 61 63 67 68 68 69 71 72 74 77 79 80 81 83 83 84 84 85 86 85 84 83 81 80 79 78 77 75 73 73 74 73 69 66 69 70 68 69 70 71 73 74 76 77 78 79 79 79 79
18 17 15 14 13 13 14 15 16 16 16 16 15 14 12 9 7 7 9 10 11 13 16 18 21 23 25 29 34 38 41 44 47 49 50 52 55 57 59 61 65 70 71 70 68 71 73 75 78 79 80 82 84 85 86 87 88 88 88 87 85 84 82 81 79 77 76 74 74 75 74 69 64 66 68 65 66 67 68 70 72 73 75 76 77 77 77 78
16 14 13 12 12 12 13 13 13 13 13 12 11 8 6 5 5 6 8 10 11 13 16 19 22 26 30 35 39 43 45 47 49 50 52 54 57 58 59 62 65 69 72 73 71 72 75 76 78 80 81 83 85 87 89 90 91 92 90 88 86 85 83 82 80 77 75 74 74 74 73 69 63 63 67 65 65 66 66 68 70 71 72 72 73 74 74 75
13 12 11 10 10 10 10 10 10 10 9 7 5 3 3 4 6 7 9 11 13 15 18 21 24 29 35 40 43 45 47 48 51 53 55 57 58 59 61 63 64 66 71 75 75 74 76 77 79 81 82 83 86 89 91 93 94 94 93 90 87 84 82 81 79 77 76 74 74 74 73 71 65 62 64 65 64 65 66 67 67 67 67 68 69 70 70 71
12 10 9 8 7 7 8 7 7 5 4 4 4 3 4 6 6 9 11 13 16 19 23 26 31 35 39 42 43 45 47 49 51 52 53 55 56 57 58 59 60 63 67 72 74 74 76 78 80 81 83 84 86 89 92 94 96 96 97 95 91 87 82 80 77 75 75 75 76 75 72 71 68 64 63 63 63 64 65 65 65 65 65 66 67 67 67 68
9 7 6 5 5 5 5 4 4 5 5 5 4 5 6 7 8 11 14 17 21 24 28 32 36 39 41 42 44 46 47 48 49 49 50 52 53 55 56 57 59 63 66 71 75 77 78 80 82 83 86 87 88 89 91 94 97 98 99 99 98 95 89 85 80 75 74 75 76 75 72 69 67 66 65 65 66 66 66 66 65 64 64 64 65 65 66 67
7 5 4 3 2 2 4 5 6 7 7 6 5 6 7 8 11 15 18 21 25 28 32 36 38 40 41 43 45 47 47 48 48 49 51 54 56 58 60 62 64 67 70 74 77 80 80 82 84 87 89 92 93 94 95 97 100 102 103 104 104 103 100 95 89 82 77 77 78 77 74 70 66 66 67 66 67 66 65 65 64 62 62 63 64 64 64 65
5 3 1 1 4 6 7 8 8 9 8 6 6 9 9 11 14 18 21 24 28 31 35 37 38 40 42 43 45 46 47 48 49 51 53 55 57 60 62 65 68 71 73 76 80 83 85 86 88 91 93 95 97 99 100 101 103 105 106 107 106 106 105 101 97 91 84 80 80 79 76 72 68 67 68 67 66 66 64 64 63 61 61 62 62 62 62 62
3 2 4 7 9 10 10 10 10 10 8 6 8 11 11 14 18 21 24 26 29 33 36 38 39 41 43 44 46 47 48 50 52 53 55 57 58 61 64 67 71 73 75 78 81 85 89 90 91 93 95 97 100 102 103 103 105 106 107 107 107 106 105 102 98 94 88 82 81 81 77 73 71 69 69 69 68 67 65 63 62 61 61 62 62 63 63 62
4 6 9 11 12 11 12 12 11 10 8 9 12 13 14 18 21 23 25 29 32 35 38 40 41 43 45 46 47 49 51 52 54 55 57 59 61 64 67 70 73 76 78 80 82 86 90 92 94 95 97 99 101 104 105 107 108 108 108 108 107 106 107 105 99 93 88 82 81 83 79 74 73 72 71 71 69 67 65 64 64 64 63 63 63 64 64 63
8 10 13 14 13 12 13 12 11 10 9 13 15 15 17 21 22 25 28 31 35 37 39 41 42 44 46 48 50 51 53 54 55 57 60 62 65 67 70 73 76 78 81 83 85 87 90 93 95 96 98 100 102 104 107 109 110 111 111 111 110 107 107 108 105 99 93 86 82 84 84 80 77 76 74 73 70 68 65 63 63 63 62 61 61 61 62 62
12 13 15 15 14 14 13 12 12 12 13 16 16 17 20 22 24 27 30 34 36 38 39 41 43 45 48 50 51 52 53 55 57 59 63 65 68 70 73 75 78 81 83 85 88 90 92 94 97 98 100 101 102 104 105 107 109 110 111 112 113 111 109 110 110 107 102 96 88 85 86 83 80 79 78 75 72 68 64 61 59 59 59 59 58 58 58 58
14 15 15 15 15 15 13 12 13 15 17 17 17 19 22 23 26 29 32 35 37 38 40 42 44 48 50 51 52 53 53 56 59 63 66 68 71 73 75 78 80 83 86 88 89 92 94 96 98 100 102 102 103 104 105 107 109 111 113 113 114 113 110 108 109 108 106 102 95 88 86 84 83 82 79 76 74 70 65 61 58 57 56 57 57 56 56 56
16 15 15 16 16 14 12 12 15 18 18 17 18 21 23 25 28 31 33 36 37 38 41 43 46 50 52 53 53 53 55 59 63 66 68 71 73 74 77 79 82 85 88 90 92 93 95 97 99 100 102 103 105 107 109 111 113 115 116 116 116 115 111 106 103 103 102 101 99 94 89 85 83 82 79 76 74 72 68 65 62 59 58 57 58 57 57 55
17 16 15 16 16 13 12 13 17 18 16 17 20 23 24 27 29 32 34 35 37 39 42 44 48 51 54 55 55 55 57 62 65 68 70 72 74 76 79 81 83 86 88 91 93 94 95 97 98 100 102 103 105 108 110 112 114 116 117 118 119 118 115 110 105 101 99 98 97 96 92 88 85 82 79 77 75 74 72 69 65 63 61 59 59 59 58 56
17 16 15 16 15 13 13 16 17 16 16 18 22 23 26 28 31 32 33 35 37 39 42 45 48 51 55 56 57 57 60 63 67 69 71 74 76 79 80 82 84 86 89 92 95 96 97 97 97 99 101 103 104 105 107 109 112 114 116 118 118 118 118 116 113 107 101 96 91 89 89 87 86 85 83 80 79 78 77 73 68 65 63 61 59 59 59 57
18 17 16 15 14 13 15 17 16 15 17 20 22 25 27 30 31 32 33 35 37 39 42 44 47 51 55 57 58 59 62 65 68 70 73 76 79 81 82 83 85 87 90 94 97 99 100 100 99 99 99 101 102 104 107 110 112 114 117 118 118 118 118 117 115 110 104 97 90 85 84 84 85 86 87 85 83 82 79 75 70 65 62 61 59 57 55 53
19 17 16 15 13 14 16 16 15 16 18 20 23 25 28 30 32 32 33 35 37 39 42 44 47 50 54 57 58 60 62 65 68 72 75 78 80 83 85 85 86 88 91 95 98 101 103 105 105 105 104 104 105 107 109 111 114 117 119 120 119 118 117 115 111 107 103 99 92 85 82 84 85 85 85 85 84 82 78 75 71 66 63 61 59 56 53 50
18 16 15 14 13 14 15 14 14 16 18 20 23 25 27 30 31 32 33 35 37 40 42 44 47 49 52 55 58 60 63 65 69 73 76 79 81 84 86 88 89 90 92 95 99 102 105 108 110 112 113 114 115 116 116 116 117 118 120 121 120 119 118 115 111 108 103 99 97 92 88 87 86 83 81 80 79 79 77 75 71 68 64 62 60 58 55 51
18 16 15 14 14 14 14 13 14 16 17 20 22 24 26 28 30 32 34 36 38 40 42 44 46 49 51 54 57 60 63 65 69 74 77 79 81 83 86 89 90 91 93 95 99 103 106 109 111 114 116 117 118 119 120 119 119 119 120 121 122 121 119 116 113 110 106 102 102 101 97 93 90 86 83 79 77 77 77 74 71 69 67 64 62 60 57 54
18 16 15 14 14 14 13 13 14 15 17 20 22 23 25 27 30 32 34 36 38 40 43 44 47 49 51 54 57 60 62 65 69 74 77 80 81 83 86 88 91 93 94 95 98 102 105 108 110 113 114 116 117 118 119 119 120 121 121 122 122 121 119 117 115 114 112 109 105 103 99 96 94 91 86 82 80 79 78 76 74 72 69 66 63 61 58 55
18 16 15 14 13 12 12 12 14 15 18 20 22 23 24 27 30 32 34 37 39 41 43 45 47 49 51 54 56 59 62 65 68 73 77 79 81 82 84 87 90 93 95 96 99 102 106 107 109 111 112 114 116 117 117 118 119 121 121 122 122 121 120 119 118 119 119 116 110 105 103 99 95 91 88 85 84 83 82 80 77 74 70 66 63 60 57 55
18 16 15 13 12 11 11 12 13 15 17 20 22 23 25 26 29 32 34 37 40 41 43 44 46 48 50 53 55 57 60 63 66 71 75 79 80 81 83 86 89 92 95 97 100 103 106 108 109 110 111 112 114 115 116 117 118 120 121 121 122 122 122 123 123 122 121 119 114 109 105 102 98 95 92 89 87 87 85 82 78 74 70 67 63 59 57 54
18 16 14 12 11 11 11 12 13 15 17 20 22 23 24 26 28 31 34 37 39 41 43 44 46 48 50 52 55 57 59 61 65 69 74 78 80 81 82 85 88 92 94 97 100 103 106 109 109 109 110 112 113 114 116 117 119 119 120 121 123 125 126 127 127 125 122 120 117 112 107 103 102 100 97 94 91 88 85 82 79 77 73 69 65 61 57 55
17 15 13 12 10 10 11 12 13 14 17 19 21 22 24 26 28 31 34 36 38 41 42 44 46 47 50 52 54 57 59 62 64 68 73 77 80 81 83 85 88 91 94 97 100 103 106 109 110 109 110 112 115 116 116 117 118 119 121 123 126 129 131 131 130 128 126 123 119 114 110 107 105 103 100 97 93 89 86 83 80 78 75 71 67 63 59 56
15 14 12 11 10 10 10 12 13 14 16 18 20 21 23 25 28 31 34 36 37 40 42 44 46 47 49 52 54 57 60 62 64 68 71 75 79 82 83 85 88 90 93 96 99 103 106 109 111 112 112 113 116 118 119 118 119 121 124 127 129 131 133 134 132 130 128 127 123 119 114 111 108 106 103 99 94 90 88 85 81 79 78 75 71 66 61 58
Wind_Direction
200 203 207 210 209 208 210 212 214 216 219 221 224 226 229 232 236 243 249 256 261 265 269 272 274 276 277 277 277 277 277 278 278 279 280 281 282 283 284 285 286 287 287 288 289 289 289 289 289 290 290 290 290 290 290 290 290 290 290 290 289 289 288 288 287 287 286 285 284 283 283 282 281 280 279 278 277 276 275 274 274 273 272 270 269 268 267 267
198 202 206 207 206 207 210 213 216 218 220 222 225 228 232 236 241 247 253 259 264 267 270 273 275 276 276 277 277 278 279 279 280 281 282 283 284 285 286 286 287 288 289 289 290 290 290 290 291 291 291 291 291 291 291 291 291 291 291 291 291 290 290 289 289 288 287 286 285 284 283 283 282 281 280 279 278 277 276 275 275 274 273 272 271 270 268 267
197 201 205 206 206 206 210 214 217 219 221 224 226 230 234 238 244 249 255 260 265 268 271 274 275 276 277 278 279 280 281 282 283 283 284 285 286 287 287 288 288 289 290 290 291 291 291 291 291 291 291 292 292 292 292 292 293 292 292 292 291 291 290 290 289 289 288 287 286 285 284 283 282 281 280 279 278 277 277 276 275 274 273 273 272 271 270 269
197 200 205 206 207 207 209 213 217 221 223 225 228 231 235 240 246 251 256 262 266 270 272 275 277 278 279 281 282 283 283 284 284 285 286 287 287 288 288 289 289 290 291 291 292 292 292 293 293 293 293 293 294 294 294 293 293 293 293 292 292 292 291 290 290 289 288 287 286 286 285 284 283 282 281 279 278 277 277 276 276 275 274 274 273 273 272 271
196 199 204 206 209 210 211 213 217 221 224 227 230 234 239 244 249 254 260 264 268 270 274 277 279 280 282 283 284 285 285 285 286 287 288 288 288 289 289 290 291 291 292 292 293 293 294 294 295 295 295 296 296 296 296 295 295 295 294 294 293 293 292 291 291 290 289 288 287 287 286 285 284 283 281 280 279 278 277 277 277 276 275 275 274 274 273 273
197 199 204 207 210 212 214 215 218 222 226 229 234 238 244 248 253 258 263 266 269 272 276 279 280 282 283 285 285 285 286 286 287 288 288 289 290 291 292 292 292 293 293 294 295 295 296 296 297 297 298 298 298 298 298 297 297 297 296 295 295 294 293 292 291 290 290 289 288 287 287 286 284 283 281 280 279 278 278 277 277 276 276 275 275 274 274 274
198 199 204 208 211 214 216 218 221 224 228 232 237 242 247 252 256 261 264 267 270 275 278 280 282 283 284 285 285 286 287 288 289 290 291 292 292 292 293 293 293 294 295 296 296 297 298 298 299 299 300 300 299 299 299 299 298 298 297 296 295 295 294 293 291 290 289 288 288 287 286 285 283 282 280 279 279 279 278 277 276 276 275 275 275 274 273 273
199 200 204 209 212 215 217 220 223 226 231 235 240 245 250 254 259 262 265 269 273 277 279 281 282 283 284 285 286 288 289 290 291 292 293 293 293 294 294 295 295 296 297 298 299 300 300 301 301 301 301 301 301 301 300 300 299 299 297 296 295 294 293 292 290 289 288 287 287 286 285 284 283 281 280 280 280 279 278 278 277 276 275 275 274 274 273 272
199 202 205 210 213 216 218 221 225 228 232 237 242 246 251 256 260 263 267 271 275 277 279 281 282 284 286 288 289 290 291 292 293 293 294 294 295 295 296 297 298 299 301 302 302 303 303 303 303 303 303 303 303 302 301 300 300 298 297 295 294 293 291 290 289 288 287 286 285 285 284 283 282 281 280 280 280 279 279 278 277 276 276 275 274 274 273 272
199 203 206 210 213 216 219 222 226 230 234 238 243 248 253 257 261 265 268 271 274 277 279 282 284 286 289 290 292 292 293 294 294 295 295 296 297 298 300 301 302 303 304 304 305 305 305 306 306 306 306 305 304 302 301 299 298 297 295 294 293 292 290 289 288 288 287 286 285 284 283 282 281 280 279 280 280 279 279 278 277 276 275 275 274 273 273 272
199 204 207 210 214 217 221 224 228 231 236 241 245 250 254 258 261 264 268 271 274 278 281 284 287 289 291 292 293 294 294 295 296 297 298 299 300 302 304 305 306 306 307 307 308 308 309 309 308 308 306 305 303 301 300 299 298 297 295 294 293 291 290 289 288 287 286 285 284 283 282 281 279 279 279 279 279 279 279 277 276 276 275 275 274 273 272 272
199 204 207 210 214 218 222 226 229 233 238 242 247 251 254 257 261 265 268 273 277 281 284 287 289 291 292 293 294 295 296 297 299 300 301 302 304 306 307 308 309 310 310 311 311 311 311 310 309 307 306 305 303 302 301 299 298 297 295 294 292 291 289 288 287 286 285 284 283 282 281 281 280 279 279 280 280 279 278 277 277 276 276 275 275 274 273 273
198 203 207 210 213 217 222 226 230 235 239 243 247 250 254 258 262 267 271 276 280 284 287 289 291 292 294 295 296 297 299 300 302 303 305 307 308 310 311 312 313 313 313 313 313 312 310 309 308 307 306 304 303 302 301 299 298 297 295 294 293 292 290 288 287 286 285 284 283 282 281 280 279 279 279 280 279 278 277 277 276 276 275 275 275 274 274 274
198 202 206 209 212 216 220 225 230 235 240 243 247 250 255 260 265 270 275 280 284 287 289 291 292 294 295 297 298 300 302 304 305 308 310 311 313 314 314 315 315 315 314 313 312 311 310 309 308 306 305 305 304 303 302 301 300 299 298 296 295 294 293 291 288 287 285 284 283 281 279 278 277 277 277 277 277 276 275 275 274 274 274 273 273 273 273 273
198 201 205 208 212 215 219 224 230 235 240 243 248 253 258 264 269 274 279 283 286 289 290 292 294 295 297 299 301 303 306 308 310 312 313 314 315 316 316 316 316 315 314 313 312 312 311 310 309 308 308 308 307 306 305 304 303 302 301 300 298 297 296 294 292 290 288 287 285 283 281 280 279 278 277 276 276 276 275 275 274 274 273 273 273 273 273 272
198 201 204 207 211 215 219 224 229 235 240 245 251 256 262 268 273 278 281 285 287 289 291 294 295 298 300 302 305 308 311 313 314 314 315 317 318 318 318 318 317 315 315 315 314 315 315 315 314 314 314 314 313 313 312 311 310 308 306 304 302 300 298 297 296 294 293 292 289 287 285 284 283 282 281 279 278 278 277 277 276 275 275 274 274 273 273 272
199 200 203 207 211 215 220 225 230 236 243 249 255 261 267 272 276 280 283 286 289 291 293 296 298 301 304 307 310 312 314 315 316 318 319 319 320 320 320 318 317 315 316 316 317 318 319 319 320 321 322 324 324 324 322 321 319 316 313 309 307 304 302 299 297 296 296 295 293 291 290 290 288 285 284 282 281 279 278 278 277 277 276 275 275 274 273 273
197 199 202 207 211 216 221 227 234 241 247 254 260 266 271 275 279 282 285 288 291 294 297 300 303 306 309 312 314 316 318 321 321 321 321 321 320 319 317 316 316 317 318 320 322 324 326 328 330 331 332 333 332 331 329 328 326 323 318 314 312 309 307 304 300 299 298 297 295 293 293 294 292 289 287 285 283 281 279 278 277 276 276 276 275 275 274 274
195 198 202 208 213 218 224 231 237 245 251 258 264 268 273 277 281 284 287 290 294 298 301 305 308 311 314 317 320 323 323 322 320 320 320 318 316 315 316 318 321 323 325 329 333 336 337 338 337 337 337 337 336 335 333 332 331 329 325 321 317 315 311 308 305 303 302 300 297 296 296 295 293 292 291 290 288 286 284 283 281 280 279 279 278 278 278 277
194 197 202 208 214 220 226 233 240 247 254 260 266 271 276 279 283 286 290 294 298 302 306 309 313 317 321 323 325 323 321 320 318 317 316 314 314 316 320 324 327 331 336 340 343 342 341 341 340 340 340 339 338 337 336 335 336 334 330 326 324 321 317 313 310 309 308 305 303 301 300 299 296 295 294 293 292 291 290 289 288 287 285 284 283 282 281 280
192 196 202 208 214 221 228 235 243 250 257 263 269 274 278 281 285 290 294 299 303 307 311 315 319 322 324 323 320 317 317 317 314 312 313 315 319 325 331 336 340 343 345 347 346 343 342 343 343 342 342 341 340 340 339 338 338 338 335 332 329 327 324 319 316 315 313 310 308 306 304 302 299 297 295 294 293 293 293 293 292 290 289 287 285 283 282 281
192 196 202 209 216 223 230 238 246 254 260 266 271 276 280 285 290 295 299 304 309 314 319 323 325 324 321 318 316 315 313 312 314 317 321 326 333 339 345 349 349 349 348 347 346 344 343 344 344 344 343 343 343 342 341 340 340 340 338 336 334 331 328 324 320 319 316 313 311 309 306 304 302 299 297 296 295 295 295 294 293 291 289 287 286 286 285 284
192 198 203 210 217 225 233 241 249 256 263 269 274 279 285 290 296 301 306 313 318 322 326 326 324 320 318 318 318 317 317 322 328 333 339 344 347 351 353 353 351 350 348 347 347 345 345 346 345 345 345 345 345 345 344 343 342 342 341 339 337 334 331 327 323 321 319 316 314 311 308 307 305 301 300 299 299 298 297 295 293 292 291 291 290 289 288 286
193 199 204 211 219 227 235 243 251 259 266 272 278 285 291 296 302 308 315 321 324 325 326 324 322 322 321 321 322 323 329 338 344 349 353 353 353 354 354 353 351 349 349 348 347 347 347 347 347 346 346 346 346 346 346 345 344 344 343 341 340 336 333 330 327 326 323 320 317 315 312 310 308 305 304 303 302 300 299 297 296 295 295 295 293 291 289 288
194 200 206 213 221 230 238 247 256 264 270 277 284 291 297 303 311 318 323 325 325 326 327 324 326 327 325 326 330 336 344 352 356 357 356 355 355 355 353 353 352 351 350 350 349 349 348 347 347 347 347 347 347 347 348 347 346 345 344 343 341 339 335 332 331 330 328 324 320 317 316 315 313 310 308 306 305 304 302 300 300 299 298 296 294 293 292 291
196 202 209 216 224 234 243 253 262 269 276 284 291 298 306 314 321 326 326 324 324 327 326 324 326 327 329 334 343 352 358 0 1 359 358 358 356 354 353 354 353 352 352 351 351 350 348 348 348 348 348 348 348 349 349 348 348 347 346 345 343 341 338 335 333 332 330 328 323 320 319 319 319 315 311 310 309 308 306 304 303 301 299 297 296 295 294 293
199 206 213 221 229 239 249 260 268 276 283 292 300 309 318 324 329 330 323 324 330 334 332 331 335 337 341 349 358 4 5 3 2 0 360 358 355 354 354 354 354 354 353 352 352 350 349 349 349 349 349 349 349 349 349 349 349 349 348 347 345 343 340 338 336 334 333 331 327 323 322 323 323 317 313 313 311 309 307 305 303 301 300 299 299 298 297 296
203 210 217 224 234 245 258 267 275 283 293 304 313 321 328 333 337 333 331 338 343 342 341 343 349 354 358 4 8 8 7 5 2 0 359 357 356 356 355 353 355 355 352 352 352 350 351 352 350 350 350 350 350 350 350 350 350 350 350 349 348 345 342 340 339 337 335 333 329 325 323 324 324 318 315 315 312 310 307 305 303 302 301 301 300 299 297 296
205 211 218 228 241 255 266 274 284 295 306 316 326 336 346 355 354 343 347 352 344 340 344 350 357 4 9 12 12 10 7 5 2 0 359 358 358 356 355 355 356 354 351 351 353 353 352 352 351 350 351 352 351 351 351 351 351 351 351 351 350 348 345 342 342 339 337 334 329 326 325 326 327 322 318 318 315 312 309 306 305 304 303 301 300 298 296 295
205 213 223 236 249 261 273 286 298 311 324 340 0 13 18 23 11 353 353 351 344 347 354 360 7 12 15 15 12 9 6 5 2 1 360 359 359 357 357 358 357 355 352 351 353 354 353 352 352 351 351 352 352 352 352 352 352 352 351 352 352 350 347 345 344 341 339 336 331 329 328 328 330 327 322 319 316 313 310 308 307 305 304 302 300 298 297 295
207 216 226 238 253 269 287 302 320 344 18 52 65 57 45 37 10 355 358 357 357 3 8 13 17 19 18 15 12 8 6 5 3 2 1 0 360 359 360 0 360 359 357 354 354 355 355 353 353 352 352 353 354 355 354 353 353 353 352 352 351 351 349 346 346 344 341 338 334 332 332 331 332 329 324 320 318 315 313 312 311 309 307 305 302 300 298 296
202 210 225 244 267 288 314 348 32 65 87 95 89 66 47 28 6 3 8 8 10 16 19 22 23 21 18 14 11 10 8 6 3 2 1 0 0 0 0 360 360 1 1 358 356 356 357 356 355 355 354 354 355 356 356 355 354 354 353 352 351 351 350 348 347 347 345 341 337 334 334 334 334 331 326 324 322 320 319 317 315 313 310 307 305 303 300 298
195 209 230 257 302 12 52 72 89 103 107 103 84 59 39 19 13 15 16 19 22 25 26 26 24 20 18 15 13 11 9 6 4 2 2 2 1 1 360 359 0 2 3 1 358 356 357 357 356 356 356 355 354 355 355 355 355 355 355 354 353 352 351 349 349 350 349 345 340 336 336 337 337 333 329 328 325 323 322 319 318 316 312 309 306 303 300 299
198 205 197 83 81 87 93 101 111 112 107 98 73 54 36 20 20 22 24 27 29 30 30 28 24 21 19 17 15 12 9 7 6 4 4 5 4 3 2 2 3 4 5 4 1 358 357 358 358 357 357 356 355 355 356 356 356 356 356 356 355 353 351 350 350 350 351 349 342 338 339 340 339 335 331 329 327 326 325 323 321 318 313 308 305 303 301 300
174 132 104 99 102 106 110 115 116 111 103 86 63 48 31 24 27 28 30 31 32 32 31 28 25 23 21 18 15 13 11 9 8 7 7 7 6 5 5 5 5 6 6 6 5 1 359 359 360 359 358 357 356 356 356 356 356 357 357 357 357 355 352 351 351 350 351 351 345 340 341 342 340 337 334 333 332 331 330 327 323 319 315 311 309 308 307 306
122 113 110 110 113 117 119 120 116 107 95 70 56 43 31 32 33 32 33 33 33 32 31 28 26 24 21 18 16 14 13 12 10 9 8 8 8 8 8 8 7 7 7 7 6 5 2 1 1 0 359 359 358 357 356 356 357 357 358 358 358 357 353 351 352 351 351 353 349 342 342 344 341 339 337 336 336 335 333 331 327 323 320 316 314 312 310 309
117 116 116 118 120 122 123 120 110 98 78 62 52 39 35 36 35 35 35 35 34 32 30 28 25 23 20 18 17 15 14 13 12 10 10 9 10 10 9 9 9 8 8 7 7 7 5 3 2 1 1 0 359 359 358 357 357 357 358 358 358 358 356 352 352 352 352 354 354 347 344 346 344 341 340 339 339 338 337 334 329 324 320 317 314 312 311 311
119 119 122 124 124 125 124 116 101 83 65 58 49 38 38 39 38 38 38 37 35 33 30 28 25 23 21 19 18 17 16 14 13 11 11 11 11 11 10 10 10 9 8 8 8 8 6 4 3 2 2 1 360 359 359 357 357 357 358 358 358 359 359 355 353 353 353 353 355 351 346 346 345 343 343 342 341 341 339 335 330 325 320 317 315 314 313 313
121 123 126 126 126 126 122 107 90 73 62 55 46 40 42 42 41 40 39 38 36 33 31 28 26 24 22 20 19 18 16 14 13 12 12 12 12 11 11 10 10 9 8 8 8 8 7 6 4 3 2 1 360 359 358 358 357 357 358 359 359 359 1 359 356 354 353 352 353 352 349 347 346 345 345 344 343 342 340 337 333 328 323 320 318 318 317 317
124 128 130 128 127 123 113 96 78 69 62 52 45 45 46 45 44 43 41 39 37 34 32 28 26 24 22 21 20 18 16 13 12 12 12 12 12 12 11 11 10 9 8 8 8 8 8 7 6 5 3 2 0 359 358 358 358 357 358 359 360 360 1 1 360 357 355 353 352 352 350 349 347 346 346 346 345 344 342 340 337 333 329 326 324 323 322 322
127 131 132 129 125 119 104 85 74 68 59 50 48 49 49 47 46 44 41 39 37 34 31 28 26 24 22 21 19 17 15 13 12 12 12 12 12 11 11 11 10 9 9 8 8 8 8 7 6 5 4 3 2 1 359 359 359 359 359 0 0 360 360 1 1 1 358 356 354 352 350 349 348 347 348 349 348 346 345 343 341 338 334 332 329 327 326 325
129 132 131 128 123 112 93 80 74 66 56 53 53 52 50 49 47 45 42 39 36 33 30 27 25 23 22 20 19 17 15 14 13 13 13 13 12 12 11 11 10 9 9 8 8 7 7 8 7 7 7 5 5 4 2 1 2 1 1 1 1 0 0 1 1 1 0 358 356 354 352 349 349 349 350 352 352 350 348 346 344 341 337 335 333 330 329 328
129 131 130 125 117 101 87 80 73 65 60 58 56 53 51 49 47 45 43 39 35 31 28 26 24 23 21 20 19 17 16 15 15 15 14 14 13 13 12 11 10 10 9 9 8 7 6 6 7 7 8 7 6 6 6 4 4 3 2 2 2 2 2 2 1 1 360 358 358 357 355 352 352 352 353 354 353 352 349 347 344 343 340 337 335 333 332 330
131 131 126 119 109 95 86 80 72 67 64 60 56 53 51 50 48 46 42 38 33 29 27 25 23 22 20 19 18 17 16 16 16 15 15 14 14 13 12 11 11 10 10 10 9 8 6 6 5 5 5 5 5 5 5 5 4 4 3 3 3 3 3 3 2 1 0 359 358 359 359 357 356 356 356 355 354 352 350 347 346 345 343 340 338 337 335 334
133 129 122 114 104 92 85 79 72 69 65 60 55 52 51 49 47 43 39 34 30 27 26 24 22 20 18 18 17 16 16 16 15 15 14 14 13 13 12 12 11 10 10 10 10 9 8 7 6 5 5 5 4 4 4 5 5 5 5 3 3 3 2 3 2 2 2 1 0 1 3 1 359 358 358 357 355 353 351 349 348 347 345 344 342 341 340 339
132 125 119 112 100 91 85 78 72 70 64 58 54 50 49 47 42 38 34 31 28 26 25 22 20 18 17 16 15 15 15 14 14 14 13 12 12 11 12 12 11 11 10 10 10 10 9 8 7 6 6 6 6 6 6 6 6 6 5 4 3 3 2 3 3 3 3 4 4 4 3 2 360 359 360 359 357 356 354 352 351 350 349 347 346 344 343 342
130 124 118 110 98 90 85 77 72 69 63 57 52 49 46 42 38 35 32 30 27 25 23 21 19 17 15 14 14 13 13 13 13 13 12 11 11 10 11 11 11 11 10 10 10 10 10 9 8 8 7 7 7 7 7 7 6 6 6 5 4 3 3 3 4 5 5 7 7 6 4 3 1 0 360 360 359 358 357 355 354 354 352 350 348 347 345 344
129 124 117 107 98 91 84 76 71 68 62 55 50 47 44 40 37 35 32 29 26 24 22 20 18 16 14 13 12 12 11 11 11 11 11 10 10 9 9 10 11 11 11 10 11 11 10 10 9 9 8 8 8 7 7 7 7 7 6 5 4 3 3 3 5 7 7 7 8 7 6 4 2 1 1 2 1 0 360 359 358 356 355 352 351 349 348 346
128 122 115 106 99 92 85 76 69 67 61 54 48 45 43 40 38 35 32 28 25 22 21 19 17 16 14 13 12 11 11 10 10 10 10 10 9 9 9 9 10 10 11 11 11 11 11 10 10 10 9 9 9 8 7 7 7 7 7 6 4 3 4 5 6 8 9 8 8 8 7 5 3 2 3 4 4 3 1 0 359 358 357 355 354 352 351 349
127 123 115 107 100 94 86 74 68 65 59 51 47 45 44 42 38 34 30 27 24 21 19 18 16 15 13 12 12 11 10 10 9 9 9 9 9 9 8 9 9 9 10 10 10 10 11 11 10 10 10 9 9 9 8 8 8 7 7 6 5 3 4 6 8 8 9 9 9 8 7 6 5 4 4 5 5 4 2 1 0 360 359 358 357 355 354 352
130 124 117 109 103 95 85 72 64 62 55 48 45 45 43 41 36 32 27 24 22 20 18 17 15 14 13 12 11 11 11 10 9 8 8 8 8 8 8 8 8 9 9 9 9 10 10 11 10 10 10 10 9 9 9 9 8 7 6 6 6 5 5 7 9 9 9 10 10 9 8 8 7 5 5 6 6 5 3 3 2 2 1 0 359 358 356 355
131 126 119 114 106 95 82 68 60 57 52 46 44 43 41 37 32 29 25 22 20 18 17 16 15 13 12 11 11 11 10 10 9 8 8 8 8 8 8 8 8 8 8 8 9 9 10 10 10 10 10 10 9 9 9 8 8 7 6 6 7 7 6 7 9 10 10 10 10 10 9 9 8 6 5 6 6 6 5 3 4 4 3 2 1 359 358 357
Height
10706 10710 10713 10717 10721 10723 10725 10728 10730 10731 10732 10732 10733 10734 10735 10736 10738 10738 10740 10741 10742 10743 10743 10743 10743 10742 10741 10740 10739 10738 10737 10735 10734 10732 10730 10728 10726 10724 10721 10718 10715 10712 10709 10705 10701 10698 10695 10691 10687 10683 10679 10675 10671 10667 10662 10658 10654 10649 10644 10640 10634 10630 10625 10621 10618 10615 10611 10607 10603 10600 10596 10593 10589 10585 10581 10577 10572 10568 10564 10561 10558 10555 10552 10550 10548 10547 10546 10544
10706 10710 10712 10716 10720 10723 10725 10727 10728 10730 10731 10731 10732 10733 10735 10736 10738 10739 10740 10741 10742 10742 10742 10742 10741 10740 10739 10737 10736 10735 10734 10732 10731 10729 10727 10725 10722 10719 10716 10713 10710 10707 10703 10700 10695 10692 10688 10684 10681 10676 10672 10667 10663 10658 10653 10648 10644 10639 10634 10629 10624 10620 10615 10611 10608 10604 10600 10596 10592 10589 10585 10582 10578 10574 10569 10565 10561 10556 10553 10549 10546 10542 10538 10536 10534 10534 10533 10532
10706 10709 10712 10716 10719 10722 10724 10726 10727 10729 10730 10731 10732 10734 10735 10737 10738 10739 10740 10740 10740 10740 10740 10739 10739 10738 10736 10735 10734 10733 10731 10729 10727 10725 10723 10721 10718 10715 10712 10708 10705 10701 10698 10694 10690 10686 10682 10678 10673 10669 10664 10659 10654 10650 10645 10640 10635 10630 10625 10620 10615 10611 10606 10601 10597 10593 10589 10585 10581 10577 10574 10571 10567 10562 10558 10553 10549 10545 10541 10538 10534 10530 10526 10523 10521 10521 10519 10518
10706 10709 10712 10716 10719 10721 10723 10724 10726 10727 10729 10730 10732 10734 10736 10737 10738 10738 10738 10739 10739 10738 10737 10737 10736 10735 10734 10733 10731 10730 10728 10726 10723 10721 10719 10716 10713 10710 10707 10703 10700 10696 10692 10689 10684 10680 10675 10670 10665 10661 10656 10651 10646 10641 10636 10631 10626 10621 10616 10611 10606 10601 10596 10591 10587 10583 10578 10574 10570 10566 10563 10559 10555 10551 10546 10541 10538 10534 10530 10527 10523 10519 10515 10512 10509 10508 10507 10505
10706 10709 10712 10715 10718 10720 10721 10723 10724 10726 10728 10730 10732 10734 10735 10736 10736 10737 10737 10737 10737 10736 10735 10735 10734 10733 10732 10730 10729 10726 10725 10723 10720 10717 10715 10712 10709 10705 10702 10698 10694 10691 10687 10682 10678 10673 10668 10663 10658 10652 10647 10643 10637 10632 10627 10622 10617 10612 10606 10601 10597 10593 10588 10582 10578 10573 10568 10564 10560 10556 10552 10548 10544 10538 10533 10528 10526 10523 10520 10516 10512 10508 10504 10501 10498 10496 10494 10492
10706 10709 10712 10715 10717 10718 10720 10722 10724 10726 10728 10730 10732 10733 10734 10735 10735 10736 10736 10735 10734 10734 10733 10733 10732 10730 10729 10727 10726 10723 10721 10719 10716 10713 10710 10707 10704 10700 10697 10693 10689 10685 10680 10676 10671 10666 10661 10655 10650 10645 10640 10635 10629 10623 10618 10613 10608 10604 10598 10592 10588 10584 10579 10574 10569 10564 10559 10554 10550 10546 10541 10537 10532 10525 10518 10514 10514 10513 10509 10506 10502 10497 10493 10489 10487 10485 10482 10480
10705 10709 10711 10713 10715 10717 10719 10721 10724 10726 10728 10730 10731 10732 10733 10734 10734 10734 10734 10733 10733 10732 10732 10730 10729 10728 10726 10724 10722 10720 10718 10715 10712 10709 10705 10702 10699 10695 10691 10687 10683 10679 10674 10669 10664 10659 10654 10649 10644 10638 10633 10627 10622 10616 10611 10605 10600 10596 10590 10584 10579 10574 10570 10566 10560 10555 10551 10545 10541 10536 10531 10526 10519 10512 10504 10500 10502 10502 10496 10494 10491 10486 10481 10478 10475 10472 10470 10468
10704 10708 10710 10712 10714 10716 10719 10722 10724 10726 10728 10729 10730 10731 10732 10732 10732 10732 10732 10732 10731 10731 10729 10728 10726 10725 10723 10721 10719 10716 10714 10710 10707 10704 10701 10697 10694 10690 10686 10681 10677 10672 10668 10663 10658 10652 10647 10642 10637 10632 10626 10621 10615 10610 10604 10599 10593 10588 10583 10576 10571 10565 10562 10557 10551 10546 10542 10537 10532 10528 10522 10516 10509 10499 10490 10488 10492 10489 10484 10483 10480 10474 10470 10466 10463 10460 10457 10454
10703 10706 10709 10711 10713 10717 10720 10722 10724 10726 10727 10729 10730 10730 10731 10731 10731 10731 10731 10730 10729 10728 10727 10725 10724 10722 10720 10718 10716 10713 10709 10706 10703 10700 10696 10692 10689 10685 10681 10676 10671 10666 10661 10656 10650 10645 10640 10635 10629 10625 10620 10614 10608 10602 10596 10591 10586 10581 10575 10569 10563 10558 10553 10548 10541 10537 10533 10527 10523 10519 10513 10506 10498 10486 10477 10477 10479 10476 10473 10472 10467 10462 10458 10454 10450 10447 10444 10440
10702 10704 10708 10710 10714 10717 10720 10722 10724 10725 10727 10728 10729 10729 10729 10729 10730 10730 10729 10728 10727 10725 10724 10723 10721 10719 10717 10714 10712 10709 10705 10702 10699 10695 10691 10688 10684 10680 10676 10670 10665 10660 10655 10649 10644 10638 10633 10629 10623 10618 10614 10608 10603 10596 10590 10585 10580 10574 10568 10562 10556 10550 10544 10539 10533 10528 10523 10517 10513 10509 10503 10496 10486 10474 10466 10466 10466 10463 10461 10459 10454 10449 10445 10441 10438 10434 10430 10427
10701 10703 10707 10711 10714 10717 10719 10721 10723 10725 10726 10727 10728 10728 10728 10728 10728 10728 10727 10726 10725 10723 10722 10720 10718 10716 10714 10711 10708 10704 10701 10698 10694 10691 10687 10683 10679 10675 10670 10665 10659 10654 10648 10643 10638 10633 10628 10623 10618 10612 10607 10602 10597 10591 10584 10578 10573 10567 10561 10554 10548 10542 10535 10529 10524 10518 10513 10507 10502 10499 10494 10486 10474 10463 10457 10456 10454 10451 10448 10443 10439 10435 10431 10427 10423 10419 10416 10413
10700 10703 10707 10711 10714 10717 10719 10721 10723 10724 10725 10726 10727 10727 10727 10727 10726 10726 10725 10724 10723 10721 10720 10718 10715 10713 10710 10707 10703 10700 10697 10694 10690 10687 10683 10679 10675 10670 10665 10660 10654 10649 10643 10638 10634 10628 10623 10617 10612 10607 10601 10596 10591 10585 10578 10572 10566 10560 10553 10546 10540 10534 10527 10521 10516 10509 10503 10497 10491 10487 10485 10475 10462 10453 10448 10446 10444 10439 10434 10429 10425 10421 10416 10412 10407 10403 10399 10397
10700 10704 10708 10711 10714 10716 10719 10721 10723 10724 10724 10725 10726 10726 10725 10725 10724 10724 10723 10722 10721 10719 10717 10715 10712 10709 10706 10703 10700 10697 10694 10691 10687 10682 10678 10674 10669 10665 10660 10655 10650 10645 10640 10634 10629 10625 10620 10614 10608 10602 10596 10591 10585 10579 10572 10565 10559 10553 10546 10539 10533 10526 10517 10511 10508 10501 10494 10488 10482 10475 10474 10466 10452 10445 10440 10435 10431 10425 10421 10416 10412 10407 10402 10398 10392 10388 10384 10382
10700 10704 10708 10711 10714 10716 10718 10721 10722 10723 10724 10724 10724 10724 10724 10724 10723 10722 10721 10720 10718 10716 10714 10711 10708 10705 10702 10700 10697 10694 10691 10687 10683 10678 10673 10669 10665 10661 10657 10652 10648 10643 10637 10632 10626 10620 10615 10610 10604 10597 10591 10586 10580 10574 10567 10560 10553 10546 10539 10530 10524 10518 10508 10499 10496 10492 10484 10478 10472 10463 10461 10457 10445 10438 10432 10425 10418 10412 10407 10403 10399 10394 10389 10385 10380 10375 10371 10368
10701 10704 10708 10711 10713 10716 10718 10720 10721 10722 10723 10723 10723 10723 10723 10722 10722 10721 10719 10718 10716 10713 10710 10707 10704 10702 10700 10697 10694 10690 10687 10683 10678 10674 10670 10666 10662 10658 10654 10650 10645 10640 10635 10629 10623 10617 10611 10605 10600 10594 10588 10582 10576 10570 10563 10556 10548 10540 10533 10524 10516 10510 10501 10488 10480 10478 10473 10466 10459 10448 10446 10445 10435 10427 10421 10414 10407 10400 10394 10389 10385 10381 10376 10372 10368 10363 10358 10354
10701 10705 10708 10710 10713 10715 10717 10719 10720 10721 10722 10722 10722 10722 10721 10721 10720 10719 10717 10715 10713 10710 10707 10704 10702 10699 10697 10694 10691 10687 10683 10679 10675 10671 10667 10663 10659 10655 10651 10647 10642 10637 10631 10626 10620 10614 10607 10601 10595 10590 10584 10578 10571 10565 10558 10551 10543 10534 10526 10517 10508 10501 10494 10483 10469 10462 10459 10453 10444 10433 10430 10432 10426 10414 10406 10401 10395 10388 10381 10375 10371 10366 10362 10358 10354 10349 10344 10339
10701 10705 10708 10710 10712 10715 10717 10718 10719 10720 10720 10721 10721 10721 10720 10719 10718 10716 10714 10712 10709 10706 10704 10702 10700 10697 10694 10691 10688 10684 10680 10676 10672 10668 10664 10660 10656 10653 10648 10644 10639 10634 10628 10623 10618 10611 10605 10598 10591 10585 10579 10572 10565 10558 10550 10544 10536 10526 10516 10507 10499 10491 10484 10476 10464 10455 10449 10441 10431 10420 10416 10417 10412 10401 10393 10387 10381 10374 10368 10362 10357 10352 10347 10343 10338 10333 10328 10324
10702 10705 10707 10710 10712 10715 10716 10717 10718 10719 10719 10720 10720 10719 10718 10717 10715 10713 10711 10708 10706 10704 10702 10700 10697 10694 10691 10688 10685 10681 10677 10672 10668 10665 10661 10657 10654 10650 10646 10642 10637 10631 10625 10619 10614 10608 10601 10594 10586 10579 10573 10565 10558 10550 10542 10535 10528 10519 10510 10499 10490 10481 10471 10463 10454 10448 10443 10433 10419 10409 10406 10404 10395 10385 10377 10370 10364 10359 10353 10348 10343 10338 10333 10328 10323 10317 10312 10308
10702 10705 10708 10710 10712 10714 10715 10716 10717 10718 10718 10718 10718 10717 10716 10714 10712 10710 10707 10706 10704 10703 10700 10698 10695 10691 10687 10684 10680 10677 10674 10671 10667 10663 10660 10656 10652 10648 10645 10640 10634 10627 10621 10615 10609 10603 10596 10589 10582 10574 10567 10560 10552 10544 10535 10528 10521 10512 10502 10491 10482 10475 10463 10451 10441 10436 10433 10426 10411 10399 10397 10394 10382 10372 10362 10352 10344 10338 10334 10330 10327 10323 10318 10313 10308 10303 10298 10293
10703 10705 10708 10710 10712 10713 10714 10715 10716 10717 10717 10716 10716 10715 10713 10711 10709 10707 10705 10704 10703 10701 10698 10696 10693 10689 10685 10681 10678 10675 10672 10670 10666 10662 10658 10655 10651 10647 10643 10637 10631 10624 10617 10611 10605 10598 10592 10586 10578 10570 10562 10555 10547 10538 10529 10520 10512 10503 10493 10482 10472 10465 10456 10442 10431 10423 10417 10412 10402 10388 10384 10379 10369 10361 10351 10340 10330 10321 10316 10313 10309 10305 10301 10297 10293 10287 10282 10277
10703 10705 10708 10709 10711 10712 10714 10715 10715 10715 10715 10714 10713 10711 10709 10708 10706 10705 10704 10703 10701 10699 10696 10693 10690 10687 10684 10682 10679 10675 10672 10669 10665 10661 10657 10653 10649 10644 10639 10634 10627 10620 10614 10608 10602 10595 10587 10581 10574 10566 10558 10550 10541 10531 10521 10511 10504 10495 10484 10473 10463 10453 10446 10432 10418 10412 10403 10396 10391 10380 10371 10365 10356 10348 10338 10329 10321 10312 10305 10299 10293 10289 10284 10280 10275 10271 10266 10262
10703 10705 10707 10709 10710 10712 10713 10713 10713 10713 10713 10712 10710 10708 10707 10706 10705 10704 10703 10701 10699 10696 10693 10690 10688 10686 10683 10681 10678 10675 10672 10668 10664 10660 10655 10650 10646 10641 10635 10629 10623 10617 10610 10604 10598 10591 10583 10576 10569 10561 10553 10544 10534 10524 10513 10502 10493 10486 10475 10464 10454 10443 10436 10426 10411 10401 10391 10382 10379 10371 10361 10354 10346 10335 10325 10318 10312 10304 10296 10288 10280 10274 10268 10263 10258 10255 10251 10247
10703 10705 10707 10708 10710 10711 10711 10712 10712 10711 10710 10709 10708 10706 10705 10705 10704 10703 10701 10699 10696 10694 10692 10689 10687 10685 10682 10679 10676 10673 10669 10666 10661 10656 10651 10646 10642 10637 10631 10625 10619 10613 10607 10600 10593 10586 10578 10571 10563 10555 10547 10537 10528 10518 10507 10494 10482 10473 10464 10454 10444 10432 10423 10418 10409 10398 10385 10372 10366 10360 10352 10345 10335 10323 10313 10306 10300 10293 10284 10275 10266 10259 10253 10248 10244 10239 10235 10230
10702 10704 10706 10707 10709 10709 10710 10710 10710 10709 10708 10707 10706 10705 10705 10704 10703 10701 10699 10697 10695 10693 10691 10689 10687 10684 10680 10678 10674 10671 10667 10663 10658 10652 10647 10643 10638 10632 10627 10622 10616 10610 10603 10596 10588 10580 10572 10564 10556 10548 10540 10530 10522 10512 10502 10490 10476 10464 10453 10443 10434 10423 10410 10402 10396 10390 10379 10364 10352 10346 10341 10335 10325 10312 10302 10295 10287 10280 10272 10261 10252 10246 10239 10234 10228 10223 10219 10214
10702 10704 10705 10706 10707 10708 10708 10708 10708 10707 10706 10705 10705 10705 10704 10703 10701 10700 10698 10696 10695 10693 10691 10689 10686 10683 10679 10676 10673 10669 10665 10660 10655 10650 10646 10640 10634 10628 10624 10619 10612 10605 10598 10591 10583 10574 10565 10557 10549 10540 10532 10524 10515 10506 10496 10485 10474 10461 10449 10437 10426 10415 10402 10390 10381 10375 10369 10357 10342 10331 10326 10324 10316 10301 10290 10283 10274 10265 10257 10248 10240 10233 10226 10219 10213 10208 10204 10199
10701 10703 10704 10705 10706 10706 10707 10706 10706 10705 10705 10705 10705 10704 10703 10702 10700 10698 10697 10696 10695 10693 10691 10689 10686 10683 10679 10675 10671 10667 10662 10658 10653 10648 10642 10635 10630 10626 10620 10613 10607 10599 10592 10585 10577 10568 10561 10552 10543 10533 10524 10517 10508 10498 10489 10479 10468 10457 10445 10433 10420 10407 10395 10383 10371 10362 10356 10347 10332 10318 10312 10310 10304 10291 10278 10271 10263 10253 10243 10235 10228 10219 10213 10206 10200 10195 10190 10185
10701 10702 10703 10704 10705 10705 10705 10705 10704 10704 10704 10704 10704 10703 10702 10700 10699 10698 10697 10696 10694 10692 10690 10688 10685 10682 10678 10674 10669 10665 10660 10655 10649 10644 10638 10633 10629 10622 10614 10608 10602 10593 10585 10579 10572 10564 10556 10546 10537 10527 10517 10509 10501 10492 10484 10474 10462 10450 10438 10426 10413 10400 10387 10375 10365 10353 10344 10336 10322 10308 10301 10299 10294 10281 10269 10263 10255 10246 10236 10226 10218 10208 10201 10194 10187 10182 10176 10171
10700 10701 10702 10703 10703 10703 10704 10703 10703 10704 10704 10704 10703 10702 10701 10700 10699 10698 10697 10695 10694 10692 10689 10686 10683 10679 10675 10671 10667 10662 10657 10652 10646 10641 10636 10631 10625 10617 10610 10604 10596 10587 10579 10575 10570 10561 10551 10541 10532 10523 10512 10501 10493 10486 10477 10467 10456 10443 10431 10418 10405 10393 10380 10368 10358 10345 10334 10325 10313 10301 10292 10292 10289 10273 10260 10255 10247 10237 10228 10218 10209 10201 10193 10185 10178 10171 10165 10158
10699 10700 10701 10702 10702 10702 10702 10703 10703 10704 10703 10703 10702 10701 10700 10699 10699 10698 10697 10695 10694 10692 10689 10686 10682 10677 10673 10669 10664 10659 10654 10650 10645 10640 10634 10628 10621 10614 10608 10599 10591 10584 10576 10570 10566 10556 10546 10538 10529 10520 10510 10498 10487 10478 10469 10459 10448 10436 10426 10414 10400 10386 10373 10361 10351 10339 10329 10319 10305 10294 10285 10281 10281 10267 10250 10244 10236 10227 10218 10209 10201 10193 10185 10178 10170 10162 10155 10148
10699 10699 10700 10701 10701 10701 10702 10703 10703 10703 10703 10702 10702 10701 10700 10700 10699 10698 10697 10695 10693 10691 10688 10684 10680 10675 10670 10665 10661 10657 10652 10647 10642 10636 10630 10623 10617 10611 10602 10594 10588 10583 10574 10564 10559 10553 10544 10536 10527 10517 10507 10497 10484 10471 10460 10450 10440 10429 10419 10411 10399 10385 10369 10355 10344 10330 10319 10310 10296 10284 10275 10267 10266 10259 10245 10235 10227 10217 10208 10200 10193 10185 10177 10169 10160 10153 10146 10138
10698 10699 10699 10700 10701 10701 10702 10703 10703 10703 10702 10702 10701 10701 10700 10700 10700 10698 10697 10695 10692 10689 10685 10681 10677 10672 10668 10664 10660 10656 10651 10646 10640 10635 10629 10623 10618 10611 10604 10599 10592 10585 10576 10565 10556 10551 10543 10532 10523 10514 10504 10495 10483 10469 10455 10443 10434 10423 10410 10400 10393 10385 10372 10357 10346 10331 10314 10300 10286 10275 10267 10258 10252 10246 10237 10228 10219 10209 10200 10190 10182 10174 10166 10157 10148 10141 10134 10126
10697 10698 10699 10700 10701 10701 10702 10702 10702 10702 10702 10702 10702 10701 10701 10700 10700 10698 10696 10694 10691 10687 10683 10679 10675 10671 10668 10664 10660 10656 10651 10646 10642 10637 10632 10627 10621 10614 10607 10602 10594 10586 10577 10565 10553 10545 10539 10528 10518 10508 10496 10487 10479 10469 10457 10443 10430 10418 10404 10389 10377 10369 10362 10351 10342 10333 10315 10296 10279 10267 10260 10254 10245 10234 10223 10215 10205 10196 10187 10178 10170 10163 10154 10146 10137 10130 10122 10114
10697 10698 10699 10700 10701 10701 10701 10702 10702 10702 10702 10703 10702 10702 10702 10701 10700 10698 10695 10692 10689 10685 10681 10678 10675 10671 10668 10664 10659 10655 10651 10646 10642 10637 10631 10624 10617 10610 10603 10596 10589 10580 10571 10560 10549 10541 10535 10526 10513 10500 10487 10476 10467 10459 10450 10437 10421 10407 10393 10377 10360 10345 10336 10328 10321 10316 10307 10289 10270 10257 10249 10244 10238 10225 10213 10205 10195 10187 10179 10168 10160 10153 10143 10134 10126 10119 10112 10105
10697 10698 10699 10699 10700 10701 10702 10702 10703 10703 10703 10703 10703 10702 10702 10701 10699 10697 10694 10692 10688 10685 10681 10678 10675 10672 10668 10664 10659 10655 10651 10646 10641 10635 10629 10622 10615 10608 10601 10593 10585 10576 10568 10558 10547 10534 10526 10518 10506 10493 10481 10468 10457 10446 10436 10425 10412 10399 10385 10369 10354 10337 10322 10310 10299 10293 10290 10280 10261 10248 10240 10233 10227 10217 10205 10197 10188 10178 10171 10160 10150 10143 10133 10124 10116 10109 10103 10097
10697 10698 10699 10699 10700 10701 10702 10703 10703 10704 10704 10704 10703 10703 10702 10700 10698 10696 10694 10691 10688 10685 10681 10678 10675 10672 10667 10663 10659 10655 10650 10645 10639 10634 10627 10621 10616 10609 10600 10591 10582 10574 10566 10558 10546 10531 10519 10509 10499 10488 10476 10463 10450 10439 10430 10421 10409 10397 10384 10368 10351 10335 10320 10310 10300 10287 10280 10273 10254 10238 10232 10225 10216 10207 10196 10186 10177 10167 10159 10150 10140 10131 10122 10112 10103 10095 10089 10083
10697 10698 10699 10700 10701 10702 10703 10704 10704 10704 10705 10704 10703 10703 10702 10700 10698 10696 10693 10690 10687 10684 10680 10677 10673 10669 10666 10662 10658 10653 10648 10643 10637 10631 10626 10620 10614 10606 10597 10589 10580 10571 10563 10554 10545 10532 10517 10505 10496 10485 10473 10460 10446 10432 10420 10411 10400 10389 10380 10368 10353 10334 10313 10300 10297 10288 10278 10271 10253 10230 10223 10218 10207 10197 10188 10177 10168 10159 10149 10138 10126 10116 10107 10099 10091 10084 10077 10071
10697 10699 10700 10701 10703 10703 10704 10704 10704 10705 10705 10704 10703 10703 10701 10699 10697 10695 10692 10689 10686 10682 10679 10675 10672 10668 10665 10660 10656 10651 10646 10641 10635 10630 10624 10617 10610 10603 10595 10586 10577 10568 10560 10551 10541 10531 10519 10506 10495 10485 10473 10460 10447 10432 10417 10403 10393 10382 10372 10362 10352 10338 10315 10290 10278 10273 10263 10259 10249 10224 10209 10205 10196 10185 10177 10167 10159 10151 10141 10130 10119 10107 10098 10091 10084 10077 10070 10063
10699 10700 10701 10702 10704 10704 10705 10705 10705 10705 10704 10704 10704 10703 10701 10699 10697 10694 10691 10688 10685 10682 10678 10675 10672 10668 10664 10660 10655 10650 10644 10640 10635 10629 10622 10615 10607 10599 10591 10583 10575 10565 10557 10548 10538 10529 10519 10506 10494 10482 10471 10459 10446 10434 10422 10409 10397 10384 10371 10358 10343 10331 10314 10286 10262 10250 10239 10234 10235 10223 10204 10194 10187 10176 10166 10157 10150 10144 10136 10127 10117 10105 10094 10085 10078 10071 10064 10057
10700 10701 10702 10703 10704 10705 10706 10705 10705 10705 10704 10704 10704 10702 10700 10699 10697 10694 10691 10688 10685 10682 10679 10676 10672 10668 10663 10659 10654 10649 10644 10639 10634 10627 10620 10612 10603 10595 10587 10579 10571 10563 10553 10545 10536 10527 10516 10504 10491 10478 10467 10457 10448 10438 10427 10414 10399 10384 10369 10355 10340 10326 10313 10293 10265 10244 10230 10219 10216 10214 10202 10188 10178 10168 10159 10150 10141 10133 10126 10119 10109 10099 10088 10078 10070 10064 10058 10051
10701 10702 10704 10705 10705 10706 10707 10706 10705 10704 10705 10705 10704 10702 10701 10699 10696 10693 10691 10688 10685 10682 10678 10675 10671 10667 10662 10658 10653 10648 10643 10637 10631 10624 10617 10609 10602 10594 10586 10578 10569 10560 10551 10542 10534 10526 10516 10505 10493 10481 10469 10456 10443 10428 10413 10400 10388 10376 10361 10345 10332 10321 10313 10304 10285 10260 10239 10219 10205 10197 10192 10183 10173 10163 10154 10145 10135 10124 10115 10107 10097 10087 10078 10069 10061 10054 10049 10043
10702 10704 10705 10705 10706 10707 10707 10706 10705 10706 10706 10705 10704 10702 10701 10698 10696 10693 10690 10687 10684 10681 10678 10674 10670 10666 10661 10656 10651 10647 10641 10635 10628 10622 10614 10607 10600 10592 10584 10576 10568 10559 10550 10540 10531 10524 10516 10507 10496 10484 10472 10459 10444 10429 10414 10400 10385 10370 10356 10339 10323 10311 10300 10293 10285 10271 10251 10229 10208 10191 10179 10171 10164 10156 10148 10138 10127 10115 10105 10096 10087 10076 10067 10060 10052 10045 10038 10033
10703 10705 10706 10706 10707 10708 10707 10706 10706 10707 10706 10705 10704 10702 10700 10698 10695 10693 10690 10687 10684 10681 10677 10674 10670 10665 10660 10655 10650 10645 10639 10634 10627 10620 10613 10606 10599 10591 10583 10575 10567 10558 10549 10540 10529 10521 10515 10509 10499 10487 10472 10459 10448 10436 10422 10407 10390 10373 10358 10344 10327 10310 10292 10275 10262 10254 10246 10236 10223 10205 10186 10170 10157 10146 10136 10128 10117 10105 10094 10085 10078 10070 10061 10053 10046 10038 10030 10024
10705 10706 10707 10707 10708 10708 10707 10707 10707 10707 10706 10705 10704 10702 10700 10698 10695 10692 10690 10687 10684 10681 10677 10673 10669 10664 10659 10654 10650 10644 10639 10633 10626 10619 10612 10605 10597 10590 10581 10573 10565 10557 10547 10537 10526 10516 10509 10503 10497 10491 10482 10469 10455 10441 10422 10404 10388 10374 10359 10345 10329 10311 10294 10276 10260 10249 10240 10232 10224 10213 10195 10175 10157 10139 10125 10115 10107 10097 10088 10079 10072 10066 10057 10048 10041 10034 10026 10019
10706 10707 10708 10708 10709 10708 10708 10708 10708 10707 10706 10705 10703 10702 10700 10697 10695 10692 10689 10687 10684 10680 10676 10672 10668 10663 10659 10654 10649 10644 10638 10632 10625 10619 10611 10604 10596 10588 10581 10572 10564 10555 10545 10535 10524 10512 10501 10491 10483 10477 10472 10464 10453 10439 10424 10405 10386 10368 10351 10339 10327 10313 10299 10287 10274 10261 10246 10231 10221 10212 10196 10174 10156 10141 10127 10114 10103 10094 10085 10075 10067 10060 10053 10044 10035 10028 10021 10014
10707 10708 10709 10709 10709 10709 10708 10708 10708 10707 10706 10705 10703 10701 10699 10697 10694 10692 10689 10686 10683 10680 10675 10671 10667 10663 10658 10653 10648 10642 10636 10630 10624 10617 10610 10602 10595 10587 10579 10571 10563 10554 10544 10534 10523 10511 10498 10485 10473 10460 10448 10436 10424 10412 10402 10392 10379 10365 10351 10338 10327 10313 10300 10288 10276 10262 10248 10231 10211 10195 10183 10169 10156 10146 10135 10122 10109 10096 10083 10072 10062 10053 10045 10037 10028 10020 10013 10007
10708 10709 10709 10710 10710 10709 10709 10709 10708 10707 10706 10705 10703 10701 10699 10697 10694 10692 10689 10686 10682 10679 10675 10671 10667 10662 10657 10652 10646 10640 10635 10629 10622 10615 10608 10601 10594 10587 10579 10571 10563 10553 10544 10535 10525 10513 10500 10485 10471 10457 10443 10431 10418 10405 10394 10384 10375 10365 10352 10338 10325 10312 10298 10286 10273 10259 10244 10225 10201 10180 10168 10159 10148 10138 10130 10122 10111 10097 10083 10070 10059 10049 10038 10029 10020 10012 10005 10000
10708 10709 10710 10710 10710 10710 10709 10709 10708 10707 10706 10705 10703 10701 10699 10696 10694 10691 10688 10685 10682 10678 10674 10670 10665 10661 10655 10650 10644 10638 10633 10627 10620 10614 10607 10599 10592 10585 10578 10571 10563 10554 10545 10536 10527 10516 10504 10491 10476 10461 10447 10435 10422 10410 10398 10387 10375 10363 10350 10336 10324 10314 10302 10288 10272 10252 10231 10212 10197 10183 10169 10155 10142 10131 10123 10114 10104 10092 10079 10065 10052 10042 10032 10023 10015 10007 9999 9993
10709 10710 10710 10710 10710 10710 10710 10709 10708 10707 10706 10705 10703 10701 10699 10696 10694 10691 10688 10685 10681 10677 10673 10669 10664 10660 10655 10649 10644 10638 10632 10626 10619 10613 10606 10599 10592 10585 10578 10571 10563 10555 10547 10537 10528 10518 10507 10494 10482 10468 10454 10441 10428 10416 10405 10392 10377 10364 10353 10340 10326 10315 10303 10286 10265 10241 10218 10201 10191 10180 10165 10152 10143 10133 10122 10109 10095 10082 10069 10058 10048 10039 10030 10021 10013 10004 9997 9990
10709 10710 10710 10711 10711 10710 10710 10709 10708 10707 10706 10704 10703 10700 10698 10696 10693 10691 10687 10684 10681 10677 10673 10669 10664 10660 10655 10650 10644 10639 10633 10627 10620 10613 10607 10600 10593 10585 10578 10571 10563 10555 10547 10538 10529 10519 10508 10496 10485 10473 10460 10447 10435 10422 10409 10396 10384 10370 10356 10344 10330 10316 10299 10277 10254 10235 10218 10203 10189 10176 10164 10153 10141 10127 10114 10103 10091 10077 10065 10055 10047 10039 10030 10019 10010 10003 9995 9987
10710 10710 10711 10711 10711 10710 10710 10709 10708 10707 10706 10704 10702 10700 10698 10696 10693 10690 10687 10684 10680 10677 10673 10668 10664 10660 10655 10650 10644 10639 10633 10627 10620 10613 10606 10599 10592 10585 10577 10570 10562 10553 10544 10537 10528 10519 10509 10498 10486 10476 10466 10453 10441 10429 10414 10398 10384 10372 10359 10346 10330 10311 10292 10271 10250 10233 10221 10206 10190 10177 10167 10153 10135 10119 10107 10096 10087 10077 10067 10055 10044 10033 10025 10017 10007 10000 9992 9984
10710 10711 10711 10711 10711 10710 10710 10709 10708 10707 10705 10704 10702 10700 10698 10695 10693 10690 10686 10683 10680 10676 10672 10668 10663 10659 10654 10649 10643 10638 10631 10625 10619 10612 10605 10598 10591 10584 10576 10568 10560 10552 10544 10536 10528 10519 10509 10499 10489 10479 10468 10455 10441 10429 10416 10401 10388 10375 10360 10343 10322 10299 10278 10262 10246 10229 10213 10202 10191 10178 10164 10147 10130 10117 10105 10095 10085 10076 10065 10055 10044 10031 10021 10013 10005 9997 9990 9983
10711 10711 10711 10711 10711 10710 10710 10709 10707 10706 10705 10703 10701 10699 10697 10695 10692 10689 10686 10682 10679 10675 10671 10667 10663 10658 10653 10648 10642 10636 10630 10624 10617 10611 10604 10597 10590 10582 10575 10567 10559 10552 10544 10536 10527 10518 10508 10498 10487 10475 10464 10454 10441 10425 10413 10403 10390 10371 10350 10331 10313 10294 10274 10258 10246 10233 10215 10200 10187 10173 10157 10143 10129 10114 10102 10093 10085 10075 10063 10053 10043 10032 10019 10009 10001 9994 9987 9982